Weather History for KEZF - July, 2013

Change the Weather History Date:

Wednesday, July 24, 2013

  Actual Average (KNYG) Record (KNYG)
Temperature  
Mean Temperature 79 °F -  
Max Temperature 87 °F 82 °F 99 °F (2010)
Min Temperature 71 °F 67 °F 64 °F (1997)
Cooling Degree Days 14    
Growing Degree Days 29 (Base 50)    
Moisture  
Dew Point 67 °F    
Average Humidity 71    
Maximum Humidity 99    
Minimum Humidity 52    
Precipitation  
Precipitation 0.00 in - - ()
Sea Level Pressure  
Sea Level Pressure 29.78 in    
Wind  
Wind Speed - (North)    
Max Wind Speed -    
Max Gust Speed -    
Visibility 10 miles    
Events      
Averages and records for this station are not official NWS values.
T = Trace of Precipitation, MM = Missing Value Source: NWS Daily Summary

Daily Weather History Graph

Daily Weather History Graph

Search for Another Location

Airport or City:

Trip Planner

Search our weather history database for the weather conditions in past years. The results will help you decide how hot, cold, wet, or windy it might be!

Date:

Astronomy

Jul. 24, 2013 Rise Set
Actual Time 6:05 AM EDT 8:26 PM EDT
Civil Twilight 5:35 AM EDT 8:56 PM EDT
Nautical Twilight 4:58 AM EDT 9:33 PM EDT
Astronomical Twilight 4:17 AM EDT 10:13 PM EDT
Moon 9:34 PM EDT (7/24) 8:20 AM EDT (7/24)
Length of Visible Light 15h 20m
Length of Day
14h 20m
Waning Gibbous, 95% of the Moon is Illuminated
Jul 24
Waning Gibbous
Jul 29
Last Quarter
Aug 6
New
Aug 14
First Quarter
Aug 20
Full

Hourly Weather History & Observations

Time (EDT) Temp. Heat Index Dew Point Humidity Pressure Visibility Wind Dir Wind Speed Gust Speed Precip Events Conditions
12:15 AM 76.1 °F - 70.7 °F 83% 29.72 in 10.0 mi North - - N/A   Unknown
12:35 AM 75.4 °F - 70.5 °F 85% 29.72 in 10.0 mi North - - N/A   Unknown
12:55 AM 74.3 °F - 70.9 °F 89% 29.72 in 10.0 mi North - - N/A   Unknown
1:15 AM 74.3 °F - 72.0 °F 92% 29.72 in 10.0 mi North - - N/A   Unknown
1:35 AM 73.6 °F - 71.8 °F 94% 29.71 in 10.0 mi North - - N/A   Unknown
1:55 AM 73.2 °F - 71.8 °F 95% 29.70 in 10.0 mi North - - N/A   Unknown
2:15 AM 73.6 °F - 72.0 °F 95% 29.69 in 10.0 mi North - - N/A   Unknown
2:35 AM 73.0 °F - 71.4 °F 95% 29.69 in 10.0 mi North - - N/A   Unknown
2:55 AM 73.4 °F - 72.1 °F 96% 29.69 in 10.0 mi North - - N/A   Unknown
3:15 AM 72.5 °F - 71.4 °F 96% 29.69 in 10.0 mi North - - N/A   Unknown
3:35 AM 72.9 °F - 71.8 °F 96% 29.68 in 10.0 mi North - - N/A   Unknown
3:55 AM 72.5 °F - 71.8 °F 98% 29.69 in 10.0 mi North - - N/A   Unknown
4:15 AM 72.3 °F - 71.4 °F 97% 29.68 in 10.0 mi North - - N/A   Unknown
4:35 AM 71.8 °F - 71.6 °F 99% 29.68 in 10.0 mi North - - N/A   Unknown
4:55 AM 71.1 °F - 70.9 °F 99% 29.69 in 7.0 mi North - - N/A   Unknown
5:15 AM 71.6 °F - 71.4 °F 99% 29.69 in 7.0 mi North - - N/A   Unknown
5:35 AM 72.1 °F - 71.8 °F 99% 29.70 in 10.0 mi North - - N/A   Unknown
5:55 AM 71.1 °F - 70.3 °F 98% 29.70 in 10.0 mi North - - N/A   Unknown
6:15 AM 71.2 °F - 71.1 °F 99% 29.71 in 7.0 mi North - - N/A   Unknown
6:35 AM 72.1 °F - 71.8 °F 99% 29.72 in 7.0 mi North - - N/A   Unknown
6:55 AM 71.6 °F - 71.1 °F 98% 29.73 in 7.0 mi North - - N/A   Unknown
7:15 AM 72.9 °F - 71.8 °F 96% 29.73 in 10.0 mi North - - N/A   Unknown
7:35 AM 74.7 °F - 72.5 °F 93% 29.74 in 10.0 mi North - - N/A   Unknown
7:55 AM 75.6 °F - 72.5 °F 90% 29.74 in 10.0 mi North - - N/A   Unknown
8:15 AM 77.0 °F - 70.7 °F 81% 29.74 in 10.0 mi North - - N/A   Unknown
8:35 AM 77.4 °F - 70.7 °F 80% 29.75 in 10.0 mi North - - N/A   Unknown
8:55 AM 78.1 °F - 67.8 °F 71% 29.76 in 10.0 mi North - - N/A   Unknown
9:15 AM 79.2 °F - 67.6 °F 68% 29.77 in 10.0 mi North - - N/A   Unknown
9:35 AM 80.6 °F 83.1 °F 67.3 °F 64% 29.78 in 10.0 mi North - - N/A   Unknown
9:55 AM 80.6 °F 82.9 °F 67.1 °F 63% 29.78 in 10.0 mi North - - N/A   Unknown
10:15 AM 82.6 °F 85.3 °F 67.6 °F 60% 29.79 in 10.0 mi North - - N/A   Unknown
10:35 AM 81.7 °F 84.2 °F 67.1 °F 61% 29.80 in 10.0 mi North - - N/A   Scattered Clouds
10:55 AM 80.8 °F 82.9 °F 66.4 °F 61% 29.80 in 10.0 mi North - - N/A   Scattered Clouds
11:15 AM 80.2 °F 82.6 °F 66.9 °F 64% 29.81 in 10.0 mi North - - N/A   Clear
11:35 AM 79.9 °F - 66.6 °F 64% 29.81 in 10.0 mi North - - N/A   Scattered Clouds
11:55 AM 80.6 °F 82.9 °F 67.1 °F 63% 29.80 in 10.0 mi North - - N/A   Scattered Clouds
12:15 PM 81.5 °F 84.2 °F 67.8 °F 63% 29.80 in 10.0 mi North - - N/A   Clear
12:35 PM 81.0 °F 83.4 °F 67.3 °F 63% 29.81 in 10.0 mi North - - N/A   Clear
12:55 PM 82.8 °F 85.1 °F 66.4 °F 58% 29.81 in 10.0 mi North - - N/A   Clear
1:15 PM 82.9 °F 85.4 °F 66.6 °F 58% 29.81 in 10.0 mi North - - N/A   Clear
1:35 PM 83.3 °F 85.5 °F 66.0 °F 56% 29.81 in 10.0 mi North - - N/A   Scattered Clouds
1:55 PM 85.3 °F 87.6 °F 66.6 °F 53% 29.81 in 10.0 mi North - - N/A   Clear
2:15 PM 84.0 °F 85.8 °F 65.1 °F 53% 29.81 in 10.0 mi North - - N/A   Clear
2:35 PM 84.6 °F 86.8 °F 66.0 °F 54% 29.80 in 10.0 mi North - - N/A   Clear
2:55 PM 85.1 °F 87.4 °F 66.4 °F 53% 29.80 in 10.0 mi North - - N/A   Clear
3:15 PM 85.8 °F 88.5 °F 66.7 °F 53% 29.79 in 10.0 mi North - - N/A   Clear
3:35 PM 85.6 °F 88.2 °F 66.9 °F 53% 29.79 in 10.0 mi North - - N/A   Clear
3:55 PM 87.1 °F 90.2 °F 67.3 °F 52% 29.79 in 10.0 mi North - - N/A   Clear
4:15 PM 85.1 °F 87.7 °F 66.7 °F 54% 29.79 in 10.0 mi North - - N/A   Scattered Clouds
4:35 PM 83.8 °F 86.3 °F 66.7 °F 56% 29.79 in 10.0 mi North - - N/A   Scattered Clouds
4:55 PM 84.2 °F 86.8 °F 66.7 °F 56% 29.79 in 10.0 mi North - - N/A   Clear
5:15 PM 84.0 °F 86.0 °F 65.7 °F 54% 29.79 in 10.0 mi North - - N/A   Scattered Clouds
5:35 PM 84.2 °F 86.3 °F 66.0 °F 54% 29.79 in 10.0 mi North - - N/A   Clear
5:55 PM 83.3 °F 85.5 °F 66.2 °F 56% 29.80 in 10.0 mi North - - N/A   Scattered Clouds
6:15 PM 82.9 °F 84.4 °F 64.4 °F 53% 29.80 in 10.0 mi North - - N/A   Mostly Cloudy
6:35 PM 82.6 °F 84.5 °F 65.3 °F 56% 29.80 in 10.0 mi North - - N/A   Mostly Cloudy
6:55 PM 82.4 °F 84.2 °F 65.1 °F 56% 29.81 in 10.0 mi North - - N/A   Scattered Clouds
7:15 PM 81.9 °F 83.5 °F 64.8 °F 56% 29.81 in 10.0 mi North - - N/A   Mostly Cloudy
7:35 PM 81.1 °F 82.8 °F 64.6 °F 57% 29.81 in 10.0 mi North - - N/A   Scattered Clouds
7:55 PM 80.6 °F 82.2 °F 63.9 °F 57% 29.83 in 10.0 mi North - - N/A   Scattered Clouds
8:15 PM 79.7 °F - 63.1 °F 57% 29.83 in 10.0 mi North - - N/A   Scattered Clouds
8:35 PM 79.2 °F - 63.0 °F 57% 29.84 in 10.0 mi North - - N/A   Scattered Clouds
8:55 PM 78.4 °F - 62.6 °F 58% 29.86 in 10.0 mi North - - N/A   Scattered Clouds
9:15 PM 78.4 °F - 62.2 °F 57% 29.86 in 10.0 mi North - - N/A   Unknown
9:35 PM 78.3 °F - 61.9 °F 57% 29.86 in 10.0 mi North - - N/A   Unknown
9:55 PM 78.1 °F - 61.0 °F 56% 29.87 in 10.0 mi North - - N/A   Unknown
10:15 PM 77.9 °F - 60.8 °F 56% 29.88 in 10.0 mi North - - N/A   Unknown
10:35 PM 78.1 °F - 59.9 °F 53% 29.89 in 10.0 mi North - - N/A   Unknown
10:55 PM 77.9 °F - 59.4 °F 53% 29.89 in 10.0 mi North - - N/A   Unknown
11:15 PM 77.4 °F - 58.8 °F 53% 29.89 in 10.0 mi North - - N/A   Unknown
11:35 PM 77.2 °F - 58.3 °F 52% 29.88 in 10.0 mi North - - N/A   Unknown
11:55 PM 76.6 °F - 58.5 °F 53% 29.89 in 10.0 mi North - - N/A   Unknown